Miscellaneous Local Product
Issued by NWS Hastings, NE

Home | Current Version | Previous Version | Graphics & Text | Print | Product List | Glossary On
Versions: 1 2 3 4 5 6 7 8 9 10 11 12 13 14 15 16 17 18 19 20 21 22 23 24 25 26 27 28 29 30 31 32 33 34 35 36 37 38 39 40 41 42 43 44 45 46 47 48 49 50
000
AXUS43 KGID 170402
MISGRI

GID CWA HOURLY WEATHER ROUNDUP
NATIONAL WEATHER SERVICE HASTINGS NE
1100 PM CDT THU APR 16 2015

NOTE: "FAIR" INDICATES FEW OR NO CLOUDS BELOW 12,000 FEET WITH NO
SIGNIFICANT WEATHER AND/OR OBSTRUCTIONS TO VISIBILITY.

...SOUTH CENTRAL NEBRASKA...

CITY           SKY/WX    TMP DP  RH WIND       PRES   REMARKS
GRAND ISLAND   CLOUDY    56  54  93 S8        30.09F
HASTINGS       CLOUDY    56  53  90 E8        30.08S
KEARNEY        CLOUDY    55  52  88 E10       30.08S
ORD            CLOUDY    56  50  80 SE3       30.10R
YORK           LGT RAIN  59  54  82 E10       30.07F
AURORA         LGT RAIN  57  55  92 NW5       30.09F
LEXINGTON      CLOUDY    55  53  91 E5        30.08R
HOLDREGE       CLOUDY    54  52  94 E13       30.07R
HEBRON         RAIN      61  54  78 NE13      30.08R

...NEBRASKA PANHANDLE...

CITY           SKY/WX    TMP DP  RH WIND       PRES   REMARKS
CHADRON        CLOUDY    50  36  58 NE9       30.19R
ALLIANCE       CLOUDY    49  39  68 N12       30.15R
SCOTTSBLUFF    CLOUDY    46  44  93 W6        30.16S
SIDNEY         LGT RAIN  47  44  90 NE8       30.14R

...WESTERN AND NORTH CENTRAL NEBRASKA...

CITY           SKY/WX    TMP DP  RH WIND       PRES   REMARKS
VALENTINE      CLOUDY    59  42  53 N10       30.13R
AINSWORTH      CLOUDY    56  53  89 W5        30.12F
ONEILL         CLOUDY    55  52  89 CALM      30.11S
BROKEN BOW     CLOUDY    55  50  83 CALM      30.10R
IMPERIAL       CLOUDY    52  50  93 NE8       30.08R FOG
NORTH PLATTE   MOCLDY    55  51  86 NE12      30.10R
MCCOOK         CLOUDY    54  52  93 NE12      30.05R FOG

...EASTERN NEBRASKA...

CITY           SKY/WX    TMP DP  RH WIND       PRES   REMARKS
NORFOLK        NOT AVBL
SO SIOUX CITY  CLOUDY    58  48  69 SW3       30.07F
TEKAMAH        CLOUDY    58  49  72 CALM      30.07S
COLUMBUS       CLOUDY    57  46  67 NE3       30.10S
ALBION         CLOUDY    58  47  68 NE8       30.10R
OMAHA EPPLEY   CLOUDY    60  51  72 CALM      30.07S
OFFUTT AFB     CLOUDY    61  52  73 NE5       30.07S
MILLARD        CLOUDY    60  52  75 CALM      30.07F
LINCOLN        CLOUDY    61  50  67 NE3       30.08S
NEBRASKA CITY  CLOUDY    62  47  60 N6        30.08R THUNDER
BEATRICE       LGT RAIN  61  56  83 NE7       30.06R
FALLS CITY     MOCLDY    62  53  72 E7        30.06R

...NORTHERN KANSAS...

CITY           SKY/WX    TMP DP  RH WIND       PRES   REMARKS
GOODLAND       RAIN      51  51 100 NE12      30.07R FOG
HILL CITY      CLOUDY    54  52  93 E5        30.02F
NORTON         PTCLDY    54  50  87 E8        30.03S
PHILLIPSBURG   CLEAR     57  52  82 NE6       30.04F
SMITH CENTER   CLEAR     55  46  71 NE9       30.05F
BELOIT         MOCLDY    57  52  82 N6        30.03S
HAYS           CLOUDY    55  46  71 E12       29.99F
RUSSELL        CLOUDY    56  51  84 SE14      29.99F
CONCORDIA      CLOUDY    58  49  72 E5        30.04R
SALINA         CLOUDY    58  52  80 NW9       30.03R
TOPEKA         MOCLDY    63  58  83 CALM      30.06R



USA.gov is the U.S. government's official web portal to all federal, state and local government web resources and services.